TimeEST,TemperatureF,Dew PointF,Humidity,Sea Level PressureIn,VisibilityMPH,Wind Direction,Wind SpeedMPH,Gust SpeedMPH,PrecipitationIn,Events,Conditions,WindDirDegrees,DateUTC
12:53 AM,46.0,35.1,66,30.18,10.0,Calm,Calm,-,N/A,,Partly Cloudy,0,2012-11-20 05:53:00
1:53 AM,45.0,35.1,68,30.16,10.0,Calm,Calm,-,N/A,,Overcast,0,2012-11-20 06:53:00
2:53 AM,42.1,35.1,76,30.16,10.0,Calm,Calm,-,N/A,,Mostly Cloudy,0,2012-11-20 07:53:00
3:53 AM,43.0,35.1,74,30.15,10.0,Calm,Calm,-,N/A,,Overcast,0,2012-11-20 08:53:00
4:53 AM,42.1,35.1,76,30.15,10.0,Calm,Calm,-,N/A,,Clear,0,2012-11-20 09:53:00
5:53 AM,41.0,35.1,79,30.15,10.0,Calm,Calm,-,N/A,,Mostly Cloudy,0,2012-11-20 10:53:00
7:53 AM,39.9,36.0,86,30.15,10.0,Calm,Calm,-,N/A,,Partly Cloudy,0,2012-11-20 12:53:00
8:53 AM,44.1,39.0,82,30.16,8.0,Calm,Calm,-,N/A,,Overcast,0,2012-11-20 13:53:00
9:53 AM,48.0,39.0,71,30.15,9.0,Calm,Calm,-,N/A,,Mostly Cloudy,0,2012-11-20 14:53:00
10:53 AM,54.0,37.0,53,30.15,10.0,Calm,Calm,-,N/A,,Overcast,0,2012-11-20 15:53:00
11:53 AM,57.0,37.0,47,30.13,10.0,Calm,Calm,-,N/A,,Overcast,0,2012-11-20 16:53:00
12:53 PM,57.9,37.9,47,30.11,10.0,Calm,Calm,-,N/A,,Overcast,0,2012-11-20 17:53:00
1:53 PM,57.0,37.0,47,30.09,10.0,SSW,3.5,-,N/A,,Overcast,210,2012-11-20 18:53:00
2:53 PM,57.0,37.9,49,30.09,10.0,SSW,3.5,-,N/A,,Overcast,210,2012-11-20 19:53:00
3:53 PM,57.0,39.0,51,30.09,10.0,Calm,Calm,-,N/A,,Overcast,0,2012-11-20 20:53:00
4:53 PM,55.9,39.0,53,30.11,10.0,Calm,Calm,-,N/A,,Overcast,0,2012-11-20 21:53:00
5:53 PM,54.0,39.9,59,30.12,10.0,Calm,Calm,-,N/A,,Overcast,0,2012-11-20 22:53:00
6:53 PM,52.0,39.9,63,30.14,10.0,Calm,Calm,-,N/A,,Overcast,0,2012-11-20 23:53:00
7:53 PM,52.0,39.9,63,30.14,10.0,Calm,Calm,-,N/A,,Overcast,0,2012-11-21 00:53:00
8:53 PM,50.0,41.0,71,30.15,10.0,North,3.5,-,N/A,,Overcast,10,2012-11-21 01:53:00
9:53 PM,50.0,41.0,71,30.15,10.0,Calm,Calm,-,N/A,,Overcast,0,2012-11-21 02:53:00
10:53 PM,46.9,39.9,77,30.16,10.0,Calm,Calm,-,N/A,,Mostly Cloudy,0,2012-11-21 03:53:00
11:53 PM,43.0,37.9,82,30.16,8.0,Calm,Calm,-,N/A,,Clear,0,2012-11-21 04:53:00